www.pogodaiklimat.ru

Погода и климат >> Архив погоды >> Ирак >> Хелла


ПОГОДА в Хелле

  • Прогноз погоды в Хелле
  • Монитор погоды в Хелле

АРХИВ ПОГОДЫ в Хелле

Время (UTC), дата Ветер
(напр.,м/с)
 
Видим.   Явления Облачность Т
(С)
Тd
(С)
f
(%)
Тe
(С)
Тes
(С)
Комфортность P
(гПа)
Po
(гПа)
Тmin
(С)
Tmax
(С)
R
(мм)
R24
(мм)
S
(см)
12 12.06 С 6 10 км ясно +41.4 +6.6 12 +39 +44 очень
жарко
1003.8 1000.9
15 12.06 С 3 10 км ясно +38.6 +8.4 16 +37 +37 очень
жарко
1003.7 1000.7
18 12.06 штиль 0 10 км ясно +33.0 +8.4 22 +32 +32 жарко 1004.5 1001.5 +42.0
21 12.06 штиль 0 10 км ясно +28.0 +10.3 33 +28 +28 жарко 1004.6 1001.5
00 13.06 штиль 0 10 км ясно +29.6 +5.7 22 +28 +28 жарко 1003.5 1000.4
03 13.06 С 3 10 км ясно +29.8 +1.8 17 +27 +28 жарко 1003.7 1000.6
06 13.06 штиль 0 10 км ясно +33.4 +10.3 24 +33 +50 жарко 1005.3 1002.3 +27.8
09 13.06 штиль 0 10 км ясно +39.4 +9.4 16 +38 +67 опасность
солнечного
удара
1004.9 1001.9
12 13.06 СВ 3 10 км ясно +41.2 +8.5 14 +39 +50 очень
жарко
1002.7 999.8
15 13.06 штиль 0 10 км ясно +39.4 +10.0 17 +38 +39 очень
жарко
1002.4 999.4
00 14.06 штиль 0 10 км ясно +26.4 +13.1 44 +28 +28 жарко 1001.5 998.4
03 14.06 штиль 0 10 км ясно +25.4 +13.1 46 +27 +29 жарко 1002.1 999.0
06 14.06 штиль 0 10 км ясно +33.4 +18.0 40 +38 +55 опасность
солнечного
удара
1002.5 999.5 +23.4
09 14.06 штиль 0 10 км ясно +41.8 +13.4 19 +42 +71 опасность
перегрева
1002.1 999.2
12 14.06 штиль 0 10 км ясно +43.0 +8.2 13 +41 +59 опасность
перегрева
1000.9 998.0
15 14.06 штиль 0 10 км ясно +41.4 +15.2 22 +43 +44 опасность
перегрева
1000.2 997.3
18 14.06 штиль 0 10 км ясно +32.8 +12.8 30 +33 +33 жарко 1000.7 997.7 +44.0
21 14.06 штиль 0 10 км ясно +29.0 +14.1 40 +31 +31 жарко 1000.2 997.2
03 15.06 штиль 0 10 км ясно +27.8 +11.4 36 +29 +30 жарко 1000.5 997.4
06 15.06 С 2 10 км ясно +33.0 +16.2 37 +36 +49 очень
душно
1002.0 999.0 +26.0
09 15.06 С 2 10 км ясно +42.2 +16.0 22 +44 +65 опасность
перегрева
1001.6 998.7
12 15.06 Ю 4 10 км ясно +45.2 +11.0 14 +44 +53 опасность
перегрева
1000.7 997.8
15 15.06 штиль 0 10 км ясно +42.0 +15.7 22 +43 +45 опасность
перегрева
1000.2 997.3
21 15.06 штиль 0 10 км ясно +29.0 +14.5 41 +31 +31 жарко 1002.4 999.3
03 16.06 штиль 0 10 км ясно +26.2 +16.1 54 +30 +31 душно 1002.7 999.6
06 16.06 ЮЗ 3 10 км ясно +34.6 +8.5 20 +33 +44 жарко 1000.7 997.7 +26.0
09 16.06 З 5 10 км ясно +43.2 +7.3 12 +41 +52 опасность
перегрева
1000.5 997.6
12 16.06 З 8 10 км ясно +45.8 +5.6 9 +43 +45 опасность
перегрева
998.5 995.6
15 16.06 З 6 10 км ясно +43.2 +6.6 11 +41 +41 опасность
перегрева
998.2 995.3
18 16.06 З 3 10 км ясно +39.2 +4.2 12 +36 +36 очень
жарко
999.6 996.7 +46.2
21 16.06 штиль 0 10 км ясно +33.8 +9.3 22 +33 +33 жарко 1000.6 997.6
06 17.06 С 4 10 км ясно +34.0 +14.7 31 +35 +44 очень
жарко
1004.6 1001.6 +27.8
09 17.06 С 7 10 км ясно +41.0 +14.0 20 +41 +47 опасность
перегрева
1004.8 1001.9
12 17.06 С 4 10 км ясно +43.2 +14.5 19 +44 +53 опасность
перегрева
1003.4 1000.5
15 17.06 С 2 10 км ясно +40.4 +13.5 20 +40 +41 очень
жарко
1003.1 1000.2
18 17.06 штиль 0 10 км ясно +32.4 +15.0 35 +34 +34 очень
жарко
1003.9 1000.9 +43.5
21 17.06 штиль 0 10 км ясно +29.1 +17.6 50 +33 +33 очень
душно
1004.7 1001.6
00 18.06 С 4 10 км ясно +26.6 +16.2 53 +30 +30 душно 1003.8 1000.7
03 18.06 штиль 0 10 км ясно +25.4 +15.5 54 +28 +30 жарко 1004.8 1001.7
06 18.06 штиль 0 10 км ясно +33.2 +15.7 35 +36 +53 опасность
солнечного
удара
1005.6 1002.6 +23.4
09 18.06 штиль 0 10 км ясно +40.5 +13.2 20 +40 +70 опасность
солнечного
удара
1004.9 1001.9
12 18.06 С 5 10 км ясно +43.2 +12.8 17 +43 +50 опасность
перегрева
999.2 996.3
15 18.06 С 6 10 км ясно +40.0 +12.8 20 +40 +40 очень
душно
1002.8 999.8
18 18.06 штиль 0 10 км ясно +32.4 +14.5 34 +34 +34 очень
жарко
1003.7 1000.7 +43.6
21 18.06 штиль 0 10 км ясно +30.8 +10.1 28 +31 +31 жарко 1004.7 1001.7
03 19.06 штиль 0 10 км ясно +26.6 +13.8 45 +29 +30 жарко 1004.4 1001.3
06 19.06 штиль 0 10 км ясно +32.6 +14.6 34 +34 +51 опасность
солнечного
удара
1004.0 1001.0 +24.0
09 19.06 штиль 0 10 км ясно +36.8 +18.7 35 +41 +71 опасность
перегрева
1003.8 1000.8

 

Местоположение метеостанции Хелла (Ирак): широта 32.45 долгота 44.45 высота над уровнем моря 27 м.

В архиве по умолчанию представлена погода в Хелле за последнюю неделю. Архивные данные за месяц целиком и за предыдущие месяцы, начиная с января 2011 года, Вы можете получить, выбрав интересующий диапазон дат из раскрывающегося списка и нажав кнопку "Ввод!".


*Определитесь, кто Вы:
робот инопланетянин человек

Внимание! Время в таблицах - всемирное. Для получения местного времени необходимо прибавить поправку, которая равна 3 ч.

Смотрите также архив погоды в соседних городах и на ближайших метеорологических станциях:

Погода в Кербеле (Ирак) (45 км)
Погода в Наджафе (Ирак) (54 км)
Погода в Дивании (Ирак) (72 км)
Погода в Эль-Азизии (Ирак) (78 км)
Погода в Багдаде (Ирак) (89 км)
Погода в Убайда Бин Аль Джарра (Ирак) (122 км)
Погода в Айн Аль-Тамаре (Ирак) (125 км)
Погода в Хите (Ирак) (147 км)
Погода в Эс-Самаве (Ирак) (150 км)
Погода в Эр-Рамади (Ирак) (153 км)

Пояснения к столбцам:

Ветер - указаны скорость ветра в м/с - средняя за 10 мин, порывы в срок и между сроками (в фигурных скобках) и направление, откуда дует ветер: С - северный, СВ - северо-восточный, В - восточный, ЮВ - юго-восточный, Ю - южный, ЮЗ - юго-западный, З - западный, СЗ - северо-западный.
Видимость - горизонтальная дальность видимости в метрах или километрах. При видимости от 1 до 10 км при отсутствии осадков обычно наблюдается дымка, при ухудшении видимости до 1 км и менее - туман. В сухую погоду видимость может ухудшаться дымом, пылью или мглою.
Явления - указаны атмосферные явления, наблюдавшиеся в срок или в последний час перед сроком; фигурными скобками обозначены явления, наблюдавшиеся между сроками (за 1-3 часа до срока); квадратными скобками обозначены град или гололедные отложения с указанием их диаметра в мм.
Облачность - указаны через наклонную черту общая и нижняя облачность в баллах и высота нижней границы облаков в метрах; квадратными скобками обозначены формы облаков: Ci - перистые, Cs - перисто-слоистые, Cc - перисто-кучевые, Ac - высококучевые, As - высокослоистые, Sc - слоисто-кучевые, Ns - слоисто-дождевые, Cu - кучевые, Cb - кучево-дождевые. Подробнее классификацию облаков см. в Атласе облаков (PDF).
T - Температура воздуха - температура, измеренная на высоте 2 м над землей.
Td - Температура точки росы - температура, при понижении до которой содержащийся в воздухе водяной пар достигнет насыщения.
f - Относительная влажность воздуха - влажноcть воздуха, измеренная на высоте 2 м над землей.
Te - Эффективная температура - температура, которую ощущает одетый по сезону человек в тени. Характеристика душности погоды. При расчете учитывается влияние влажности воздуха и скорости ветра на теплоощущения человека.
Tes - Эффективная температура на солнце - температура, которую ощущает человек, с поправкой на солнечный нагрев. Характеристика знойности погоды. Зависит от высоты солнца над горизонтом, облачности и скорости ветра. Ночью, в пасмурную погоду, а также при ветре 12 м/с и более поправка равна нулю.
P - Атмосферное давление - приведенное к уровню моря атмосферное давление.
Po - Атмосферное давление - измеренное на уровне метеостанции атмосферное давление.
Tmin - Минимальная температура - минимум температуры воздуха на высоте 2 м над землей.
Tmax - Максимальная температура - максимум температуры воздуха на высоте 2 м над землей.
R - Количество осадков - Количество выпавших осадков за период времени, мм. При наведении курсора мыши на число - период времени, за который выпало указанное количество осадков.
R24 - Количество осадков - Количество выпавших осадков за 24 часа, мм.
S - Снежный покров - Высота снежного покрова, см. При наведении курсора мыши на число - состояние снежного покрова и степень покрытия местности в баллах.